SCP
0 0 0 -0 -0 0 -0 -0 -0 0 0 0 0 0 0 0 0 0 0 0 0 0 0 0 0 0 0 0 0 0 0 0 1 0 0 0 0 0 0 0 0 0 0
0 0 0 0 0 0 0 0 0 0 0 0 0 0 0 0 0 0 0 0 0 0 0 0 0 1 1 1 1 0 0 0 0 0 0 0 0 0 0 0 0 0 0
0 0 0 0 0 0 0 0 0 0 0 0 0 0 0 0 0 0 0 0 0 0 0 0 1 1 1 1 1 1 1 1 0 0 0 0 0 0 0 0 0 0 0
0 0 0 0 0 0 0 0 0 0 0 0 0 0 0 0 0 1 1 1 1 2 0 0 1 1 2 1 1 0 0 0 0 0 0 0 0 0 0 0 0 0 0
2 2 2 2 1 0 1 1 1 1 1 0 1 1 1 1 2 2 2 1 1 1 1 1 2 1 1 1 0 0 0 0 0 0 0 0 0 0 0 0 0 0 0
3 2 3 2 1 1 1 2 1 2 2 2 2 2 2 2 2 2 1 1 1 0 0 0 0 0 0 0 0 0 0 0 0 0 0 0 0 0 0 0 0 0 0
2 2 2 2 2 2 2 2 1 1 1 2 1 1 1 1 0 0 0 0 0 0 0 0 0 0 0 0 0 0 0 0 0 0 0 0 0 0 0 0 0 0 0
2 2 1 1 1 2 2 1 1 1 1 1 1 0 1 1 1 0 0 0 0 0 0 0 0 0 0 0 0 0 0 0 0 0 0 0 0 0 0 0 0 0 0
1 0 0 1 1 1 1 0 0 0 0 0 0 0 0 0 0 0 0 0 0 0 0 0 0 0 0 0 0 0 0 0 0 0 0 0 0 0 0 0 0 0 0
0 0 0 1 0 0 0 0 0 0 0 0 0 0 0 0 0 0 0 0 0 0 0 0 0 0 0 0 0 0 0 0 0 0 0 0 0 0 0 0 0 0 0
0 0 0 0 0 0 0 0 0 0 0 0 0 0 0 0 0 0 0 0 0 0 0 0 0 0 0 0 0 0 0 0 0 0 0 0 0 0 0 0 0 0 0
0 0 -0 0 0 0 0 0 0 0 0 0 0 0 0 0 0 0 0 0 0 0 0 0 0 0 0 0 0 0 0 0 0 0 0 0 0 0 0 0 0 0 0
0 0 0 0 0 0 0 0 0 0 0 0 0 0 0 0 0 0 0 0 0 0 0 0 0 0 0 0 0 0 0 0 0 0 0 0 0 0 0 0 0 0 0
0 -0 0 0 0 0 0 0 0 0 0 0 0 0 0 0 0 0 0 0 0 0 0 0 0 0 0 0 0 0 0 0 0 0 0 0 0 0 0 0 0 0 0
-0 -0 0 0 0 0 0 0 0 0 0 0 0 0 0 0 0 0 0 0 0 0 0 0 0 0 0 0 0 0 0 0 0 0 0 0 0 0 0 0 0 0 0
0 0 -0 0 0 0 0 0 0 0 0 0 0 0 0 0 0 0 0 0 0 0 0 0 0 0 0 0 0 0 0 0 0 0 0 0 0 0 0 0 0 0 0
0 0 0 0 0 0 0 0 0 0 0 0 0 0 0 0 0 0 0 0 0 0 0 0 0 0 0 0 0 0 0 0 0 -0 0 0 0 0 0 0 0 0 0
0 0 0 0 0 0 0 0 0 0 0 0 0 0 0 0 0 0 0 0 0 0 0 0 0 0 0 0 0 0 0 0 -0 -0 -0 -0 0 0 0 0 0 0 0
0 0 0 0 0 0 0 0 0 0 0 0 0 0 0 0 0 0 0 0 0 0 0 0 0 0 0 0 0 0 0 -0 -0 -0 -0 0 0 0 0 0 0 0 0
0 0 0 0 0 0 0 0 0 0 0 0 0 0 0 0 0 0 0 0 0 0 0 0 0 0 0 0 -0 0 0 0 0 -0 -0 -0 -0 0 0 0 0 0 0
0 0 0 0 0 0 0 0 0 0 0 0 0 0 0 0 0 0 0 0 0 0 0 0 0 0 -0 -0 -0 0 0 0 0 0 0 0 0 0 0 0 0 0 0
0 0 0 0 0 0 0 0 0 0 0 0 0 0 0 0 0 0 0 0 0 0 0 0 0 0 0 0 0 0 0 0 0 0 0 0 -0 0 0 0 0 0 0
0 0 0 0 0 0 0 0 0 0 0 0 -0 -0 0 0 0 0 0 0 0 0 0 0 0 0 0 0 0 -0 0 0 0 0 0 0 0 0 0 0 0 0 0
0 0 0 0 0 0 0 0 0 0 0 0 -0 0 0 0 0 0 0 0 0 0 0 0 0 0 0 0 0 0 0 0 0 0 0 0 0 0 0 0 0 0 0
-0 0 0 0 0 0 0 0 0 0 0 0 0 0 0 0 0 0 0 0 0 0 0 0 0 0 0 0 0 0 0 0 0 0 0 0 0 0 0 0 0 0 0
0 0 0 0 0 0 0 0 0 0 0 0 0 0 0 0 0 0 0 0 0 0 0 0 0 0 0 0 0 0 0 0 0 0 0 0 0 0 0 0 0 0 0
Wind_Speed_500mb
67 65 59 57 59 54 51 47 43 41 38 38 38 36 34 30 33 35 33 34 39 47 52 49 43 39 40 38 35 39 47 47 46 45 50 54 54 54 50 48 47 44 34
71 70 63 58 57 50 47 43 40 39 34 34 38 34 31 29 26 24 26 27 31 33 39 46 49 44 41 41 40 40 45 49 49 51 50 49 49 52 46 33 28 20 25
75 73 67 62 54 52 50 45 42 39 33 29 33 37 35 34 31 29 30 37 43 45 41 46 52 44 46 44 40 42 45 51 54 50 52 30 21 27 25 27 32 39 40
70 70 65 59 56 48 42 37 34 36 31 28 27 31 32 32 26 30 31 39 43 40 43 41 48 52 49 45 44 50 48 49 48 49 41 38 38 24 16 19 31 35 30
55 43 39 46 57 61 56 54 54 45 35 31 29 30 27 28 29 31 29 32 37 36 25 29 36 45 43 47 48 43 43 40 36 28 26 25 25 26 22 19 14 20 27
58 54 50 42 31 32 48 46 38 39 45 45 42 33 32 32 29 28 26 28 25 18 8 12 20 28 32 30 25 25 24 21 18 17 12 9 5 8 12 13 12 9 13
67 61 55 52 49 45 40 33 25 25 23 24 21 19 23 24 22 13 12 9 6 9 11 14 16 15 13 13 13 15 11 8 6 10 9 8 5 2 4 5 1 6 8
52 49 45 45 42 36 30 28 25 23 18 14 9 5 6 6 3 4 4 4 8 9 8 6 5 7 9 10 12 18 26 25 25 24 24 23 24 20 17 12 5 7 11
37 40 41 39 35 29 29 26 27 25 19 14 11 9 6 2 2 2 4 8 11 10 16 20 23 28 28 26 24 24 24 18 20 19 16 16 18 18 19 18 18 14 6
31 40 36 36 36 34 30 26 23 25 23 18 13 12 12 7 6 6 9 11 20 27 28 29 28 29 29 28 27 28 25 21 21 20 17 15 16 13 11 12 13 14 15
20 18 29 23 34 34 33 31 27 23 18 13 15 15 16 15 19 21 22 27 29 32 32 30 26 25 24 25 25 25 21 21 20 16 15 17 16 13 13 14 11 10 15
23 24 21 20 23 25 35 30 25 23 23 24 28 34 33 28 26 25 29 31 29 26 23 23 20 22 22 22 22 19 17 18 15 11 9 5 5 7 10 10 12 12 7
56 41 36 30 33 30 31 29 20 25 25 29 36 33 28 26 24 25 26 22 22 21 19 16 16 16 17 15 13 14 17 20 25 20 15 14 9 12 17 16 9 12 16
60 57 46 39 33 27 27 20 17 23 25 25 30 32 33 34 30 23 21 18 17 15 12 8 8 10 11 9 7 10 14 22 27 28 14 18 20 23 25 28 30 17 5
65 66 54 44 37 32 27 19 20 28 28 26 27 24 24 25 23 22 18 15 12 9 8 6 5 7 14 21 13 13 18 24 27 26 17 16 19 20 21 25 29 27 29
78 70 56 47 38 33 25 21 29 28 30 26 25 19 19 23 22 19 18 13 7 5 4 13 15 18 28 30 27 20 20 29 33 28 20 12 16 18 17 21 23 25 31
79 71 59 48 40 30 24 28 32 32 25 22 22 19 21 23 21 18 6 5 7 12 19 24 26 37 37 28 28 27 27 32 36 38 29 16 14 15 14 16 18 19 24
71 63 56 47 36 33 32 36 31 26 21 18 22 21 24 24 20 8 7 10 12 17 20 20 23 25 23 17 15 15 18 23 35 33 35 36 31 25 19 20 22 22 22
65 58 49 43 43 41 34 31 24 18 22 23 27 30 25 20 15 10 13 13 15 18 20 20 21 19 18 17 17 12 13 12 26 25 26 30 29 33 29 15 15 18 16
60 59 50 40 39 38 33 30 25 25 28 30 29 25 18 21 15 11 10 12 15 18 20 24 28 24 20 20 24 14 4 7 9 17 19 23 27 24 20 18 19 17 18
54 43 37 39 39 35 34 33 31 29 32 31 26 25 24 10 7 9 5 15 16 17 19 19 15 12 11 10 13 15 6 4 4 10 13 17 20 17 17 20 14 17 19
50 44 45 41 40 33 28 39 41 40 37 34 30 26 19 15 13 14 18 12 8 9 7 5 7 2 10 1 3 8 12 9 5 5 7 9 17 10 16 21 17 17 18
47 48 48 46 39 32 38 50 49 46 40 34 33 27 24 22 25 24 18 8 5 0 4 9 16 17 16 11 10 10 13 14 12 5 2 5 8 9 13 18 19 17 21
56 52 52 50 43 40 45 50 48 43 37 33 28 20 19 15 10 6 3 4 2 3 5 6 6 10 22 20 18 21 18 13 8 6 2 1 4 9 11 12 20 18 23
52 51 48 47 45 47 54 49 42 41 39 32 24 19 16 13 8 6 5 9 4 2 4 2 6 10 21 29 30 21 10 2 10 7 5 3 3 8 9 12 18 17 19
53 52 46 55 48 48 47 42 43 41 39 35 24 19 14 10 5 8 11 6 3 3 5 5 11 13 19 10 3 4 6 11 11 4 1 1 11 9 8 13 15 17 21
Wind_Direction_500mb
198 199 202 209 210 212 217 222 230 233 237 238 232 239 246 256 260 262 269 267 267 264 265 272 277 280 287 294 287 282 276 279 283 289 279 282 284 283 281 287 292 289 280
194 197 202 201 208 211 214 222 230 237 250 255 247 252 262 269 276 269 269 276 278 270 271 270 271 272 278 283 289 290 288 286 285 285 290 295 295 294 291 284 294 290 283
193 195 197 201 208 214 219 226 233 242 248 255 252 251 258 268 285 294 291 281 278 268 268 270 268 276 277 283 273 273 274 282 284 282 283 286 280 289 289 278 280 280 284
193 193 195 199 208 217 221 225 229 234 245 250 256 263 274 282 283 270 269 278 279 282 286 276 259 257 256 253 268 271 279 287 289 289 284 277 271 274 279 286 284 297 297
172 165 175 194 205 209 214 218 224 225 235 252 262 272 280 278 272 269 273 271 278 282 284 259 243 243 252 256 261 281 287 290 292 294 284 275 269 267 266 285 307 297 305
145 144 143 147 164 192 211 216 227 233 235 244 245 247 251 256 264 274 274 272 269 270 263 237 241 253 262 276 287 294 296 296 302 301 296 290 285 247 259 265 290 305 316
124 129 133 131 126 129 137 150 168 178 203 220 214 214 243 260 276 281 299 295 286 301 284 288 295 296 300 318 316 317 316 346 24 73 63 57 47 25 222 213 194 88 71
125 124 124 122 122 129 137 155 156 162 175 187 182 188 233 259 232 272 299 313 354 10 32 31 38 59 64 56 69 94 91 91 91 93 90 87 85 85 87 93 93 72 58
128 134 128 129 133 140 135 136 141 139 140 130 117 120 128 179 261 1 0 15 22 54 82 90 92 91 91 94 97 95 95 100 100 93 94 89 83 76 68 64 61 64 85
96 110 111 128 127 128 131 135 135 129 122 127 133 120 126 138 119 61 56 66 84 95 95 92 91 90 90 88 85 81 75 67 67 63 61 65 59 63 53 53 56 69 71
91 132 117 135 126 125 123 123 120 123 126 131 119 118 107 106 107 94 93 101 100 98 98 95 93 93 87 77 72 69 55 30 30 35 30 39 28 32 36 33 32 44 74
149 161 148 166 137 140 120 115 108 105 103 109 110 107 105 104 100 101 107 119 116 109 103 103 103 95 87 69 56 46 26 4 12 21 342 18 5 9 21 12 18 6 0
155 158 170 150 132 124 123 118 110 100 102 115 115 114 110 112 107 108 110 109 103 99 98 88 75 71 78 74 54 32 29 49 43 42 46 59 41 45 43 33 46 66 79
174 174 164 148 131 126 122 116 114 124 113 111 124 124 123 124 127 119 117 113 106 99 87 66 71 67 66 50 29 9 26 40 43 34 55 55 58 60 59 55 56 56 56
165 169 166 153 145 142 144 136 133 134 123 115 110 105 128 130 121 123 118 105 99 87 92 89 80 62 66 53 33 25 33 30 26 37 56 54 52 52 52 48 52 60 60
155 168 164 155 149 144 148 157 148 136 142 138 115 121 132 133 126 115 103 91 62 51 98 98 92 82 75 77 70 58 50 66 53 46 52 58 49 41 34 42 50 53 54
159 161 161 154 143 152 168 172 163 150 149 134 127 134 143 140 136 134 120 54 67 106 105 96 99 97 95 83 79 72 66 60 53 53 53 45 38 27 26 46 57 55 38
158 159 154 154 155 165 175 175 163 149 146 135 142 150 157 151 145 138 117 82 97 118 112 102 94 91 87 65 50 44 47 52 45 58 56 50 49 51 63 74 65 55 38
163 161 161 162 165 172 172 167 154 158 163 162 160 157 160 160 149 122 78 81 108 112 107 94 80 65 50 29 24 38 40 40 36 49 53 46 43 51 50 41 54 46 33
161 157 157 162 166 168 164 162 166 167 167 160 157 154 155 144 134 137 118 85 95 109 103 97 97 91 83 57 52 36 325 338 0 51 31 28 29 19 23 35 46 37 29
161 159 159 157 160 165 168 172 161 156 161 155 150 148 144 118 139 157 107 110 95 115 118 119 114 97 65 54 46 45 11 301 254 321 25 8 3 5 12 2 46 37 30
149 153 156 159 162 162 172 166 158 156 151 141 134 123 121 117 128 138 130 109 92 112 146 189 203 228 347 278 33 22 4 350 313 303 0 342 355 41 28 42 37 31 9
157 163 162 161 165 169 168 157 156 153 146 140 126 112 111 107 106 131 134 134 200 70 16 314 254 267 271 279 286 314 313 318 314 316 348 313 18 48 32 34 31 18 8
163 165 167 166 163 159 163 159 155 157 154 143 132 130 130 135 131 144 152 137 77 0 300 311 284 264 256 265 273 299 304 301 320 176 163 2 66 30 24 24 8 355 359
163 164 167 166 159 159 163 164 163 163 164 156 146 132 128 125 132 142 184 203 191 97 28 35 344 309 266 266 277 286 301 305 142 134 150 8 79 15 34 15 1 6 4
162 168 169 158 154 158 166 171 174 173 174 169 163 165 154 148 159 192 182 145 180 246 287 317 2 7 3 322 293 117 109 127 124 137 2 158 85 33 32 14 5 4 359
Wind_Speed_850mb
67 65 59 57 59 54 51 47 43 41 38 38 38 36 34 30 33 35 33 34 39 47 52 49 43 39 40 38 35 39 47 47 46 45 50 54 54 54 50 48 47 44 34
71 70 63 58 57 50 47 43 40 39 34 34 38 34 31 29 26 24 26 27 31 33 39 46 49 44 41 41 40 40 45 49 49 51 50 49 49 52 46 33 28 20 25
75 73 67 62 54 52 50 45 42 39 33 29 33 37 35 34 31 29 30 37 43 45 41 46 52 44 46 44 40 42 45 51 54 50 52 30 21 27 25 27 32 39 40
70 70 65 59 56 48 42 37 34 36 31 28 27 31 32 32 26 30 31 39 43 40 43 41 48 52 49 45 44 50 48 49 48 49 41 38 38 24 16 19 31 35 30
55 43 39 46 57 61 56 54 54 45 35 31 29 30 27 28 29 31 29 32 37 36 25 29 36 45 43 47 48 43 43 40 36 28 26 25 25 26 22 19 14 20 27
58 54 50 42 31 32 48 46 38 39 45 45 42 33 32 32 29 28 26 28 25 18 8 12 20 28 32 30 25 25 24 21 18 17 12 9 5 8 12 13 12 9 13
67 61 55 52 49 45 40 33 25 25 23 24 21 19 23 24 22 13 12 9 6 9 11 14 16 15 13 13 13 15 11 8 6 10 9 8 5 2 4 5 1 6 8
52 49 45 45 42 36 30 28 25 23 18 14 9 5 6 6 3 4 4 4 8 9 8 6 5 7 9 10 12 18 26 25 25 24 24 23 24 20 17 12 5 7 11
37 40 41 39 35 29 29 26 27 25 19 14 11 9 6 2 2 2 4 8 11 10 16 20 23 28 28 26 24 24 24 18 20 19 16 16 18 18 19 18 18 14 6
31 40 36 36 36 34 30 26 23 25 23 18 13 12 12 7 6 6 9 11 20 27 28 29 28 29 29 28 27 28 25 21 21 20 17 15 16 13 11 12 13 14 15
20 18 29 23 34 34 33 31 27 23 18 13 15 15 16 15 19 21 22 27 29 32 32 30 26 25 24 25 25 25 21 21 20 16 15 17 16 13 13 14 11 10 15
23 24 21 20 23 25 35 30 25 23 23 24 28 34 33 28 26 25 29 31 29 26 23 23 20 22 22 22 22 19 17 18 15 11 9 5 5 7 10 10 12 12 7
56 41 36 30 33 30 31 29 20 25 25 29 36 33 28 26 24 25 26 22 22 21 19 16 16 16 17 15 13 14 17 20 25 20 15 14 9 12 17 16 9 12 16
60 57 46 39 33 27 27 20 17 23 25 25 30 32 33 34 30 23 21 18 17 15 12 8 8 10 11 9 7 10 14 22 27 28 14 18 20 23 25 28 30 17 5
65 66 54 44 37 32 27 19 20 28 28 26 27 24 24 25 23 22 18 15 12 9 8 6 5 7 14 21 13 13 18 24 27 26 17 16 19 20 21 25 29 27 29
78 70 56 47 38 33 25 21 29 28 30 26 25 19 19 23 22 19 18 13 7 5 4 13 15 18 28 30 27 20 20 29 33 28 20 12 16 18 17 21 23 25 31
79 71 59 48 40 30 24 28 32 32 25 22 22 19 21 23 21 18 6 5 7 12 19 24 26 37 37 28 28 27 27 32 36 38 29 16 14 15 14 16 18 19 24
71 63 56 47 36 33 32 36 31 26 21 18 22 21 24 24 20 8 7 10 12 17 20 20 23 25 23 17 15 15 18 23 35 33 35 36 31 25 19 20 22 22 22
65 58 49 43 43 41 34 31 24 18 22 23 27 30 25 20 15 10 13 13 15 18 20 20 21 19 18 17 17 12 13 12 26 25 26 30 29 33 29 15 15 18 16
60 59 50 40 39 38 33 30 25 25 28 30 29 25 18 21 15 11 10 12 15 18 20 24 28 24 20 20 24 14 4 7 9 17 19 23 27 24 20 18 19 17 18
54 43 37 39 39 35 34 33 31 29 32 31 26 25 24 10 7 9 5 15 16 17 19 19 15 12 11 10 13 15 6 4 4 10 13 17 20 17 17 20 14 17 19
50 44 45 41 40 33 28 39 41 40 37 34 30 26 19 15 13 14 18 12 8 9 7 5 7 2 10 1 3 8 12 9 5 5 7 9 17 10 16 21 17 17 18
47 48 48 46 39 32 38 50 49 46 40 34 33 27 24 22 25 24 18 8 5 0 4 9 16 17 16 11 10 10 13 14 12 5 2 5 8 9 13 18 19 17 21
56 52 52 50 43 40 45 50 48 43 37 33 28 20 19 15 10 6 3 4 2 3 5 6 6 10 22 20 18 21 18 13 8 6 2 1 4 9 11 12 20 18 23
52 51 48 47 45 47 54 49 42 41 39 32 24 19 16 13 8 6 5 9 4 2 4 2 6 10 21 29 30 21 10 2 10 7 5 3 3 8 9 12 18 17 19
53 52 46 55 48 48 47 42 43 41 39 35 24 19 14 10 5 8 11 6 3 3 5 5 11 13 19 10 3 4 6 11 11 4 1 1 11 9 8 13 15 17 21
Wind_Direction_850mb
198 199 202 209 210 212 217 222 230 233 237 238 232 239 246 256 260 262 269 267 267 264 265 272 277 280 287 294 287 282 276 279 283 289 279 282 284 283 281 287 292 289 280
194 197 202 201 208 211 214 222 230 237 250 255 247 252 262 269 276 269 269 276 278 270 271 270 271 272 278 283 289 290 288 286 285 285 290 295 295 294 291 284 294 290 283
193 195 197 201 208 214 219 226 233 242 248 255 252 251 258 268 285 294 291 281 278 268 268 270 268 276 277 283 273 273 274 282 284 282 283 286 280 289 289 278 280 280 284
193 193 195 199 208 217 221 225 229 234 245 250 256 263 274 282 283 270 269 278 279 282 286 276 259 257 256 253 268 271 279 287 289 289 284 277 271 274 279 286 284 297 297
172 165 175 194 205 209 214 218 224 225 235 252 262 272 280 278 272 269 273 271 278 282 284 259 243 243 252 256 261 281 287 290 292 294 284 275 269 267 266 285 307 297 305
145 144 143 147 164 192 211 216 227 233 235 244 245 247 251 256 264 274 274 272 269 270 263 237 241 253 262 276 287 294 296 296 302 301 296 290 285 247 259 265 290 305 316
124 129 133 131 126 129 137 150 168 178 203 220 214 214 243 260 276 281 299 295 286 301 284 288 295 296 300 318 316 317 316 346 24 73 63 57 47 25 222 213 194 88 71
125 124 124 122 122 129 137 155 156 162 175 187 182 188 233 259 232 272 299 313 354 10 32 31 38 59 64 56 69 94 91 91 91 93 90 87 85 85 87 93 93 72 58
128 134 128 129 133 140 135 136 141 139 140 130 117 120 128 179 261 1 0 15 22 54 82 90 92 91 91 94 97 95 95 100 100 93 94 89 83 76 68 64 61 64 85
96 110 111 128 127 128 131 135 135 129 122 127 133 120 126 138 119 61 56 66 84 95 95 92 91 90 90 88 85 81 75 67 67 63 61 65 59 63 53 53 56 69 71
91 132 117 135 126 125 123 123 120 123 126 131 119 118 107 106 107 94 93 101 100 98 98 95 93 93 87 77 72 69 55 30 30 35 30 39 28 32 36 33 32 44 74
149 161 148 166 137 140 120 115 108 105 103 109 110 107 105 104 100 101 107 119 116 109 103 103 103 95 87 69 56 46 26 4 12 21 342 18 5 9 21 12 18 6 0
155 158 170 150 132 124 123 118 110 100 102 115 115 114 110 112 107 108 110 109 103 99 98 88 75 71 78 74 54 32 29 49 43 42 46 59 41 45 43 33 46 66 79
174 174 164 148 131 126 122 116 114 124 113 111 124 124 123 124 127 119 117 113 106 99 87 66 71 67 66 50 29 9 26 40 43 34 55 55 58 60 59 55 56 56 56
165 169 166 153 145 142 144 136 133 134 123 115 110 105 128 130 121 123 118 105 99 87 92 89 80 62 66 53 33 25 33 30 26 37 56 54 52 52 52 48 52 60 60
155 168 164 155 149 144 148 157 148 136 142 138 115 121 132 133 126 115 103 91 62 51 98 98 92 82 75 77 70 58 50 66 53 46 52 58 49 41 34 42 50 53 54
159 161 161 154 143 152 168 172 163 150 149 134 127 134 143 140 136 134 120 54 67 106 105 96 99 97 95 83 79 72 66 60 53 53 53 45 38 27 26 46 57 55 38
158 159 154 154 155 165 175 175 163 149 146 135 142 150 157 151 145 138 117 82 97 118 112 102 94 91 87 65 50 44 47 52 45 58 56 50 49 51 63 74 65 55 38
163 161 161 162 165 172 172 167 154 158 163 162 160 157 160 160 149 122 78 81 108 112 107 94 80 65 50 29 24 38 40 40 36 49 53 46 43 51 50 41 54 46 33
161 157 157 162 166 168 164 162 166 167 167 160 157 154 155 144 134 137 118 85 95 109 103 97 97 91 83 57 52 36 325 338 0 51 31 28 29 19 23 35 46 37 29
161 159 159 157 160 165 168 172 161 156 161 155 150 148 144 118 139 157 107 110 95 115 118 119 114 97 65 54 46 45 11 301 254 321 25 8 3 5 12 2 46 37 30
149 153 156 159 162 162 172 166 158 156 151 141 134 123 121 117 128 138 130 109 92 112 146 189 203 228 347 278 33 22 4 350 313 303 0 342 355 41 28 42 37 31 9
157 163 162 161 165 169 168 157 156 153 146 140 126 112 111 107 106 131 134 134 200 70 16 314 254 267 271 279 286 314 313 318 314 316 348 313 18 48 32 34 31 18 8
163 165 167 166 163 159 163 159 155 157 154 143 132 130 130 135 131 144 152 137 77 0 300 311 284 264 256 265 273 299 304 301 320 176 163 2 66 30 24 24 8 355 359
163 164 167 166 159 159 163 164 163 163 164 156 146 132 128 125 132 142 184 203 191 97 28 35 344 309 266 266 277 286 301 305 142 134 150 8 79 15 34 15 1 6 4
162 168 169 158 154 158 166 171 174 173 174 169 163 165 154 148 159 192 182 145 180 246 287 317 2 7 3 322 293 117 109 127 124 137 2 158 85 33 32 14 5 4 359